Weather History for KAND - January, 2014

Change the Weather History Date:

Thursday, January 23, 2014

  Actual Average Record
Temperature  
Mean Temperature 29 °F -  
Max Temperature 39 °F 52 °F 73 °F (1964)
Min Temperature 19 °F 32 °F 12 °F (1960)
Degree Days  
Heating Degree Days 36    
Moisture  
Dew Point 7 °F    
Average Humidity 39    
Maximum Humidity 68    
Minimum Humidity 20    
Precipitation  
Precipitation 0.00 in - - ()
Sea Level Pressure  
Sea Level Pressure 30.28 in    
Wind  
Wind Speed 7 mph (West)    
Max Wind Speed 15 mph    
Max Gust Speed 21 mph    
Visibility 10 miles    
Events      
Averages and records for this station are not official NWS values.
T = Trace of Precipitation, MM = Missing Value Source: NWS Daily Summary

Daily Weather History Graph

Daily Weather History Graph

Search for Another Location

Airport or City:

Trip Planner

Search our weather history database for the weather conditions in past years. The results will help you decide how hot, cold, wet, or windy it might be!

Date:

Astronomy

Jan. 23, 2014 Rise Set
Actual Time 7:34 AM EST 5:51 PM EST
Civil Twilight 7:07 AM EST 6:18 PM EST
Nautical Twilight 6:36 AM EST 6:48 PM EST
Astronomical Twilight 6:06 AM EST 7:18 PM EST
Moon 12:03 AM EST (1/23) 11:28 AM EST (1/23)
Length of Visible Light 11h 11m
Length of Day
10h 17m
Waning Gibbous, 55% of the Moon is Illuminated
Jan 23
Waning Gibbous
Jan 24
Last Quarter
Jan 30
New
Feb 6
First Quarter
Feb 14
Full

Hourly Weather History & Observations

Time (EST) Temp. Windchill Dew Point Humidity Pressure Visibility Wind Dir Wind Speed Gust Speed Precip Events Conditions
12:56 AM 28.0 °F 20.0 °F 5.0 °F 38% 30.12 in 10.0 mi WSW 8.1 mph - N/A   Clear
1:56 AM 27.0 °F 21.6 °F 6.1 °F 41% 30.13 in 10.0 mi West 4.6 mph - N/A   Clear
2:56 AM 26.1 °F 20.5 °F 7.0 °F 44% 30.15 in 10.0 mi West 4.6 mph - N/A   Clear
3:56 AM 26.1 °F - 7.0 °F 44% 30.16 in 10.0 mi Calm Calm - N/A   Clear
4:56 AM 25.0 °F 20.7 °F 8.1 °F 49% 30.18 in 10.0 mi West 3.5 mph - N/A   Clear
5:56 AM 25.0 °F 20.7 °F 8.1 °F 49% 30.20 in 10.0 mi WNW 3.5 mph - N/A   Clear
6:56 AM 21.9 °F - 9.0 °F 58% 30.23 in 10.0 mi Calm Calm - N/A   Clear
7:56 AM 19.9 °F 14.9 °F 10.9 °F 68% 30.27 in 10.0 mi SW 3.5 mph - N/A   Clear
8:56 AM 27.0 °F 21.6 °F 14.0 °F 58% 30.29 in 10.0 mi SW 4.6 mph - N/A   Clear
9:56 AM 33.1 °F 24.9 °F 10.0 °F 38% 30.31 in 10.0 mi West 10.4 mph - N/A   Clear
10:56 AM 34.0 °F 27.2 °F 8.1 °F 34% 30.30 in 10.0 mi WSW 8.1 mph - N/A   Clear
11:56 AM 36.0 °F 29.0 °F 9.0 °F 33% 30.31 in 10.0 mi WSW 9.2 mph - N/A   Clear
12:56 PM 37.9 °F 29.6 °F 9.0 °F 30% 30.29 in 10.0 mi WSW 13.8 mph 19.6 mph N/A   Clear
1:56 PM 39.0 °F 31.8 °F 7.0 °F 27% 30.27 in 10.0 mi WSW 11.5 mph 19.6 mph N/A   Clear
2:56 PM 39.9 °F 31.8 °F 8.1 °F 27% 30.25 in 10.0 mi WSW 15.0 mph - N/A   Clear
3:56 PM 39.9 °F 32.1 °F 3.9 °F 22% 30.27 in 10.0 mi WSW 13.8 mph 20.7 mph N/A   Clear
4:56 PM 39.0 °F 31.4 °F 1.0 °F 20% 30.29 in 10.0 mi West 12.7 mph 20.7 mph N/A   Clear
5:56 PM 36.0 °F 26.7 °F 3.9 °F 26% 30.31 in 10.0 mi West 15.0 mph - N/A   Clear
6:56 PM 33.1 °F 24.4 °F 5.0 °F 31% 30.34 in 10.0 mi West 11.5 mph 19.6 mph N/A   Clear
7:56 PM 30.0 °F 22.4 °F 7.0 °F 38% 30.36 in 10.0 mi West 8.1 mph - N/A   Clear
8:56 PM 28.0 °F 19.3 °F 7.0 °F 41% 30.37 in 10.0 mi WNW 9.2 mph - N/A   Clear
9:56 PM 28.0 °F 19.3 °F 3.9 °F 36% 30.38 in 10.0 mi NW 9.2 mph - N/A   Clear
10:56 PM 25.0 °F 15.5 °F 1.9 °F 37% 30.41 in 10.0 mi WNW 9.2 mph - N/A   Clear
11:56 PM 24.1 °F 15.2 °F 3.0 °F 40% 30.44 in 10.0 mi West 8.1 mph - N/A   Clear